STARLINK-35874, 66962

Orbit data source: Space-Track

STARLINK-35874, 66962 is a payload satellite owned by SpaceX/Seattle (US) in LEO that was launched on Mon, 08 Dec 2025 UTC via an FALCON 9 launch vehicle from the Air Force Eastern Test Range (AFETR). Payload-class satellites include a variety of spacecraft equipped with specific instruments for various scientific and technological missions. These include communications satellites like Starlink; space stations such as the ISS; scientific satellites like the Hubble; Earth observation satellites from companies like Planet Labs, Umbra, and HawkEye 360; GPS; miniature CubeSats for education and research; and military/defense satellites.

Loading next visibility...
Identifier
66962, 2025-288D
Orbit
LEO
Country
Flag of USUS
Related business
Manufacturer
SpaceX/Seattle
Mission
Operational Commercial Communications
Bus & Motor
STARLINK V2MO, Unknown motor
Mass
575 kg wet, ~530 kg dry
Launch date (UTC)
2025-12-08 (5 months ago)
Launch vehicle
FALCON 9
Launch site
Air Force Eastern Test Range (AFETR)
Object type
Payload
Rocket body
Debris
Shape & HBR
Box + 2 Pan, 17.7 m
Radar Cross Section
36.964 m²

Expand to show TLE details & history
Last TLE update: 9 hours ago

TLE from 9 hours ago
0 STARLINK-35874
1 66962U 25288D   26130.09565897  .00014923  00000-0  55120-3 0  9990
2 66962  42.9999  37.0935 0001578 272.4812  87.5859 15.27550514 24673
Epoch: 2026-05-10T02:17Z
TLE epoch observation values (Epoch: 2026-05-10T02:17:44.935Z)
Latitude
0.00001°
Longitude
134.75262°
Altitude
482.867 km
Speed
7.626 km/s
True Right ascension
02h 28m 22s
True Declination
0° 00' 00"
Sunlit
Object was in daylight at epoch
Visualization orbit readout
Latitude
Unknown
Longitude
Unknown
Altitude
Unknown
Speed
Unknown
Apparent Right ascension
Unknown
Apparent Declination
Unknown
Sunlit
N/A
Visualization observer readout
Local Sidereal Time
19:48:58
Azimuth
Unknown
Elevation
Unknown
Doppler factor
Unknown
Orbital elements
Apogee altitude
486.166 km
Perigee altitude
484 km
Semi-major axis
6,863.22 km
Eccentricity
0.00016
Inclination
42.9999°
RAAN
37.0935°
Arg. of periapsis
272.4812°
True anomaly
87.60397°
Mean anomaly
87.5859°
Eccentric anomaly
87.59493°
Mean motion
3.81726 °/min
Orbital period
94.31 mins
BSTAR
0.0005512
Loading maneuver chart data...
Computing Atmospheric mass density...
Loading historical data...
Loading historical data...
Loading historical data...
Loading historical data...
Loading historical data...
Loading historical data...
Loading historical data...

Documentation

Showing up to 5 results
|